Find KUIPER-00420

NORAD ID: 68932 Int'l Des: 2026-098P Owner: KUIP Country: US Constellation: amazon-leo operational
LEOCIRCULAR

当前视图

正在加载3D地球...

About KUIPER-00420

KUIPER-00420 (NORAD 68932) is a amazon-leo constellation satellite launched Apr 30, 2026 by KUIP of US. It operates in LEO, CIRCULAR orbit with a mass of 490.00 kg.

关于 KUIPER-00420

正在加载描述...

即将过境

Passes for default location (London). Set your location on the main map for personalized predictions.

高度历史

Loading altitude history...

两行轨道根数

1 68932U 26098P 26170.16173248 .00033137 00000-0 94124-3 0 9991
2 68932 51.8783 58.0023 0003515 180.7095 179.3887 15.35877611 7659
Epoch: Jun 19, 2026 • Age: 26 hours

当前状态

高度 455.8 km
速度 7.64 km/s
星下点 11.50°N, 128.51°W
发射日期 Apr 30, 2026
运行时间 0.1 years
类型 internet

技术详情

分类 Payload
质量 490.00 kg
干质量 490.00 kg
总质量 490.00 kg
长度 1.80 m
直径 0.70 m
跨度 5.00 m
形状 Box + 2 pan
制造商 KUIP
平台类型 Kuiper
阶段状态 In Orbit
所有者/国家 KUIP/US

Most Searched